Date,TemperatureHighF,TemperatureAvgF,TemperatureLowF,DewpointHighF,DewpointAvgF,DewpointLowF,HumidityHigh,HumidityAvg,HumidityLow,PressureMaxIn,PressureMinIn,WindSpeedMaxMPH,WindSpeedAvgMPH,GustSpeedMaxMPH,PrecipitationSumIn
2013-2-1,5.5,-0.1,-7.6,-0.4,-5.9,-13.2,76,76,76,31.69,31.48,13,4,13,0.00
2013-2-2,14.0,7.7,3.2,7.4,1.5,-3.1,76,75,74,31.51,31.37,10,2,10,0.00
2013-2-3,19.9,13.8,7.3,12.1,7.0,0.9,77,74,71,31.40,31.31,13,3,13,0.00
2013-2-4,16.5,13.1,7.7,10.4,7.3,1.3,83,77,73,31.34,31.25,11,2,11,0.00
2013-2-5,28.6,20.0,7.7,21.3,13.3,1.3,84,75,71,31.46,31.13,13,4,13,0.00
2013-2-6,33.3,20.4,1.2,27.2,13.3,-4.6,84,74,69,31.57,31.34,10,2,10,0.00
2013-2-7,33.8,31.0,22.3,33.8,30.0,21.3,100,96,79,31.46,31.31,6,0,6,0.00
2013-2-8,26.2,19.5,6.4,21.1,13.5,0.8,96,77,70,31.75,31.40,0,0,0,0.00
2013-2-9,28.8,22.5,4.8,26.5,18.6,-0.7,100,85,76,31.75,31.31,0,0,0,0.00
2013-2-10,41.5,32.2,17.4,41.5,31.5,14.3,100,97,86,31.31,30.81,17,4,17,0.00
2013-2-11,37.4,29.9,23.5,32.1,22.7,15.7,87,74,69,31.37,30.66,28,8,28,0.00
2013-2-12,30.0,24.1,21.0,21.0,16.6,13.7,83,73,69,31.46,31.19,10,4,13,0.00
2013-2-13,37.6,29.8,17.8,28.4,23.0,14.6,94,76,67,31.25,30.95,11,2,11,0.00
2013-2-14,36.1,33.4,27.9,32.3,26.1,19.4,90,75,67,31.43,30.86,17,3,17,0.00
2013-2-15,27.5,19.8,10.9,19.0,12.2,4.4,74,72,70,31.60,31.34,12,3,12,0.00
2013-2-16,16.9,10.5,2.8,9.7,3.8,-3.5,74,74,73,31.60,31.43,11,2,11,0.00
2013-2-17,27.1,15.4,-0.9,18.7,7.9,-7.1,74,72,70,31.60,31.19,14,3,14,0.00
2013-2-18,45.0,33.6,21.7,33.7,25.9,15.3,97,73,64,31.34,30.81,13,4,15,0.00
2013-2-19,23.9,12.4,7.5,14.9,6.6,1.9,79,77,76,31.60,30.89,20,6,20,0.00
2013-2-20,22.3,13.4,4.5,14.5,6.7,-1.1,77,74,71,31.78,31.48,11,3,11,0.00
2013-2-21,25.3,17.9,9.7,24.4,12.4,3.2,100,79,73,31.84,31.37,17,4,17,0.00
2013-2-22,30.6,26.7,23.4,26.8,23.2,18.4,100,87,73,31.43,31.13,13,2,13,0.00
2013-2-23,30.2,25.2,20.8,21.1,17.7,13.5,80,73,69,31.37,31.16,15,5,15,0.00
2013-2-24,37.9,25.8,15.8,27.5,18.0,9.9,83,72,66,31.57,31.25,9,2,9,0.00
2013-2-25,39.2,27.6,14.9,29.1,20.4,11.4,89,75,66,31.60,31.37,9,1,9,0.00
2013-2-26,34.0,30.5,27.1,30.2,24.9,20.2,100,80,69,31.48,31.01,29,7,29,0.00
2013-2-27,32.9,30.4,27.7,32.4,29.5,26.2,100,97,83,31.28,30.98,12,5,13,0.00
2013-2-28,33.8,30.5,23.7,31.5,24.5,16.3,100,79,69,31.57,31.10,14,5,14,0.00